[Iaude] MPEC C80: 2024 CL1 [a=1.01,e=0.44,i=1.0,H=25.8]
    mpec at cfa.harvard.edu 
    mpec at cfa.harvard.edu
       
    Wed Feb  7 21:48:07 EST 2024
    
    
  
M.P.E.C. 2024-C80                              Issued 2024 February 8, 02:46 UT
     The Minor Planet Electronic Circulars contain information on unusual
         minor planets, routine data on comets and natural satellites,
         and occasional editorial announcements.  They are published
    on behalf of Division F of the International Astronomical Union by the
          Minor Planet Center, Smithsonian Astrophysical Observatory,
                          Cambridge, MA 02138, U.S.A.
			  
             Prepared using the Tamkin Foundation Computer Network
                              MPC at CFA.HARVARD.EDU
            URL https://www.minorplanetcenter.net/    ISSN 1523-6714
                                    2024 CL1                                    
Observations:
     K24C01L* C2024 02 04.48161810 43 32.118+04 28 16.33         21.47wXEC080F52
     K24C01L  C2024 02 04.49354110 43 32.289+04 27 49.56         22.13wXEC080F52
     K24C01L  C2024 02 04.51753210 43 32.625+04 26 55.85         21.70wXEC080F52
     K24C01L KC2024 02 05.29768010 44 20.28 +03 54 43.9          21.4 GVEC080H21
     K24C01L KC2024 02 05.30327510 44 20.41 +03 54 29.3          20.9 GVEC080H21
     K24C01L KC2024 02 05.31064210 44 20.57 +03 54 10.4          20.8 GVEC080H21
     K24C01L KC2024 02 05.31382910 44 23.262+03 54 12.42         21.53GVEC080I52
     K24C01L KC2024 02 05.32560310 44 23.564+03 53 41.39         21.07GVEC080I52
     K24C01L KC2024 02 05.33145310 44 23.716+03 53 26.95         21.43GVEC080I52
     K24C01L KC2024 02 05.33608910 44 23.834+03 53 13.74         20.97GVEC080I52
     K24C01L  C2024 02 05.46606110 44 32.232+03 47 46.72         21.20GVEC080F52
     K24C01L  C2024 02 05.46688010 44 32.247+03 47 44.65         21.08GVEC080F52
     K24C01L  C2024 02 08.09233710 48 22.25 +01 03 34.7                WEC080X09
     K24C01L  C2024 02 08.09933410 48 22.87 +01 02 58.4                WEC080X09
Observer details:
F52 Pan-STARRS 2, Haleakala.  Observers J. Herman, T. Lowe, P. Minguez, A.
    Schultz, I. Smith.  Measurers K. Chambers, T. de Boer, J. Fairlamb, H.
    Gao, M. Huber, C.-C. Lin, E. Magnier, Y. Ramanjooloo, R. Wainscoat, R.
    Weryk.  1.8-m Ritchey-Chretien + CCD.
H21 Astronomical Research Observatory, Westfield.  Observer R. Holmes.
    Measurers T. Linder, R. Holmes, L. Horn.  0.76-m f/3.0 astrograph + CCD.
I52 Steward Observatory, Mt. Lemmon Station.  Observer H. Groeller.  Measurers
    E. C. Beshore, D. Fay, J. B. Fazekas, D. C. Fuls, A. R. Gibbs, A. D.
    Grauer, H. Groeller, J. K. Hogan, R. A. Kowalski, S. M. Larson, G. J.
    Leonard, D. Rankin, R. L. Seaman, F. C. Shelly, K. W. Wierzchos.  1.0-m
    prime focus + CCD.
X09 Deep Random Survey, Rio Hurtado.  Observers A. Schnabel, D. Ruhela.
    Measurer S. Deen.  0.43-m reflector + CMOS.
Orbital elements:
2024 CL1                                                 Earth MOID = 0.0067 AU
Epoch 2023 Sept. 13.0 TT = JDT 2460200.5                MPC                     
M 148.52267              (2000.0)            P               Q                  
n   0.97102293     Peri.  317.47180     -0.19690765     +0.98031585             
a   1.0099884      Node   301.16721     -0.89492465     -0.18572777             
e   0.4430765      Incl.    0.96624     -0.40042134     -0.06697779             
P   1.02           H   25.88          G   0.15           U   8                  
Residuals in seconds of arc
240204 F52  0.2+  0.0     240205 H21 (0.7-  0.8+)   240205 F52  0.3+  0.2-
240204 F52  0.2+  0.2-    240205 I52  0.1-  0.3-    240205 F52  0.3+  0.0
240204 F52  0.2+  0.0     240205 I52  0.0   0.4-    240208 X09  0.4+  0.1+
240205 H21  0.1-  0.2+    240205 I52  0.2+  0.6+    240208 X09  0.7+  0.9+
240205 H21  0.3-  0.3+    240205 I52  0.3+  0.4-
Ephemeris:
2024 CL1                 a,e,i = 1.01, 0.44, 1                   q = 0.5625
Date    TT    R. A. (2000) Decl.     Delta      r    Elong.  Phase     V
2024 01 09    10 24 29.7 +10 07 39   0.3213  1.2275   133.7    35.4    25.3
...
2024 01 24    10 35 40.5 +08 04 00   0.1809  1.1382   145.6    29.2    23.7
...
2024 02 01    10 40 45.8 +06 06 48   0.1112  1.0845   151.8    25.4    22.5
...
2024 02 07    10 46 24.9 +02 25 09   0.06090 1.0416   154.8    23.8    21.0
2024 02 08    10 48 03.1 +01 10 16   0.05268 1.0342   154.7    24.0    20.7
2024 02 09    10 50 12.6 -00 31 21   0.04452 1.0268   154.3    24.7    20.3
...
2024 02 15    20 33 08.7 -61 27 39   0.01039 0.9810    50.4   129.1    21.5
...
2024 02 23    22 28 32.6 -16 26 55   0.07266 0.9170     6.4   173.0
...
2024 03 09    22 34 35.2 -11 54 04   0.2084  0.7913    13.0   163.6    34.4
A. U. Tomatic                (C) Copyright 2024 MPC           M.P.E.C. 2024-C80
    
    
More information about the Iaude
mailing list